15-02-2022, 00:00:06,    215,    1.3,    1.7,   0.00,   0.00, 1006.8,   80.7, -999.0
15-02-2022, 00:00:16,    216,    1.3,    1.7,   0.00,   0.00, 1006.8,   80.7, -999.0
15-02-2022, 00:00:26,    215,    0.0,    1.7,   0.00,   0.00, 1006.7,   80.5, -999.0
15-02-2022, 00:00:36,    215,    0.6,    1.7,   0.00,   0.00, 1006.8,   80.6, -999.0
15-02-2022, 00:00:46,    218,    0.6,    1.7,   0.00,   0.00, 1006.8,   80.7, -999.0
15-02-2022, 00:00:56,    218,    0.0,    1.6,   0.00,   0.00, 1006.7,   80.3, -999.0
15-02-2022, 00:01:06,    218,    0.1,    1.5,   0.00,   0.00, 1006.7,   80.5, -999.0
15-02-2022, 00:01:16,    218,    0.3,    1.7,   0.00,   0.00, 1006.8,   80.6, -999.0
15-02-2022, 00:01:26,    219,    0.1,    1.7,   0.00,   0.00, 1006.7,   80.5, -999.0
15-02-2022, 00:01:36,    223,    0.3,    1.7,   0.00,   0.00, 1006.7,   80.5, -999.0
15-02-2022, 00:01:46,    239,    0.9,    1.7,   0.00,   0.00, 1006.8,   80.7, -999.0
15-02-2022, 00:01:55,    235,    1.6,    1.7,   0.00,   0.00, 1006.8,   80.8, -999.0
15-02-2022, 00:02:05,    213,    0.5,    1.7,   0.00,   0.00, 1006.8,   80.8, -999.0
15-02-2022, 00:02:16,    213,    0.0,    1.6,   0.00,   0.00, 1006.7,   80.6, -999.0
15-02-2022, 00:02:25,    213,    0.2,    1.7,   0.00,   0.00, 1006.7,   80.6, -999.0
15-02-2022, 00:02:35,    213,    0.1,    1.7,   0.00,   0.00, 1006.7,   80.5, -999.0
15-02-2022, 00:02:45,    221,    1.4,    1.7,   0.00,   0.00, 1006.8,   80.9, -999.0
15-02-2022, 00:02:55,    239,    1.7,    1.8,   0.00,   0.00, 1006.9,   80.9, -999.0
15-02-2022, 00:03:05,    228,    2.0,    1.7,   0.00,   0.00, 1006.8,   80.8, -999.0
15-02-2022, 00:03:15,    229,    1.1,    1.7,   0.00,   0.00, 1006.8,   80.8, -999.0
15-02-2022, 00:03:25,    258,    1.1,    1.8,   0.00,   0.00, 1006.9,   80.8, -999.0
15-02-2022, 00:03:35,    258,    0.0,    1.7,   0.00,   0.00, 1006.7,   80.4, -999.0
15-02-2022, 00:03:45,    255,    0.8,    1.7,   0.00,   0.00, 1006.8,   80.7, -999.0
15-02-2022, 00:03:55,    224,    1.7,    1.7,   0.00,   0.00, 1006.8,   80.8, -999.0
15-02-2022, 00:04:05,    223,    0.7,    1.7,   0.00,   0.00, 1006.8,   80.8, -999.0
15-02-2022, 00:04:15,    223,    0.6,    1.7,   0.00,   0.00, 1006.8,   80.8, -999.0
15-02-2022, 00:04:25,    222,    0.0,    1.6,   0.00,   0.00, 1006.7,   80.6, -999.0
15-02-2022, 00:04:35,    222,    0.0,    1.6,   0.00,   0.00, 1006.7,   80.5, -999.0
15-02-2022, 00:04:44,    222,    0.0,    1.5,   0.00,   0.00, 1006.7,   80.4, -999.0
15-02-2022, 00:04:55,    222,    0.0,    1.6,   0.00,   0.00, 1006.7,   80.5, -999.0
15-02-2022, 00:05:05,    288,    0.1,    1.5,   0.00,   0.00, 1006.7,   80.5, -999.0
15-02-2022, 00:05:14,    233,    1.8,    1.8,   0.00,   0.00, 1006.8,   80.9, -999.0
15-02-2022, 00:05:25,    250,    1.4,    1.8,   0.00,   0.00, 1006.8,   80.8, -999.0
15-02-2022, 00:05:35,    226,    1.4,    1.7,   0.00,   0.00, 1006.8,   80.7, -999.0
15-02-2022, 00:05:44,    224,    1.2,    1.7,   0.00,   0.00, 1006.8,   80.8, -999.0
15-02-2022, 00:05:54,    236,    1.7,    1.7,   0.00,   0.00, 1006.8,   80.9, -999.0
15-02-2022, 00:06:05,    236,    0.5,    1.6,   0.00,   0.00, 1006.8,   80.7, -999.0
15-02-2022, 00:06:14,    236,    0.0,    1.6,   0.00,   0.00, 1006.7,   80.4, -999.0
15-02-2022, 00:06:24,    236,    0.0,    1.5,   0.00,   0.00, 1006.7,   80.4, -999.0
15-02-2022, 00:06:34,    236,    0.0,    1.6,   0.00,   0.00, 1006.7,   80.6, -999.0
15-02-2022, 00:06:44,    236,    0.0,    1.5,   0.00,   0.00, 1006.6,   80.4, -999.0
15-02-2022, 00:06:54,    235,    0.0,    1.6,   0.00,   0.00, 1006.7,   80.5, -999.0
15-02-2022, 00:07:04,    235,    0.2,    1.7,   0.00,   0.00, 1006.8,   80.8, -999.0
15-02-2022, 00:07:14,    234,    0.0,    1.6,   0.00,   0.00, 1006.6,   80.5, -999.0
15-02-2022, 00:07:24,    230,    0.9,    1.7,   0.00,   0.00, 1006.7,   80.8, -999.0
15-02-2022, 00:07:34,    232,    0.9,    1.6,   0.00,   0.00, 1006.7,   80.8, -999.0
15-02-2022, 00:07:44,    232,    0.0,    1.6,   0.00,   0.00, 1006.6,   80.5, -999.0
15-02-2022, 00:07:54,    229,    0.1,    1.6,   0.00,   0.00, 1006.6,   80.5, -999.0
15-02-2022, 00:08:04,    264,    0.1,    1.6,   0.00,   0.00, 1006.6,   80.6, -999.0
15-02-2022, 00:08:14,    257,    2.1,    1.7,   0.00,   0.00, 1006.7,   80.9, -999.0
15-02-2022, 00:08:23,    257,    2.7,    1.7,   0.00,   0.00, 1006.7,   81.0, -999.0
15-02-2022, 00:08:33,    210,    1.2,    1.8,   0.00,   0.00, 1006.7,   80.9, -999.0
15-02-2022, 00:08:44,    209,    0.4,    1.7,   0.00,   0.00, 1006.6,   80.9, -999.0
15-02-2022, 00:08:53,    239,    2.4,    1.7,   0.00,   0.00, 1006.7,   81.0, -999.0
15-02-2022, 00:09:03,    240,    0.9,    1.7,   0.00,   0.00, 1006.6,   80.9, -999.0
15-02-2022, 00:09:14,    213,    0.4,    1.7,   0.00,   0.00, 1006.6,   80.9, -999.0
15-02-2022, 00:09:23,    214,    0.1,    1.6,   0.00,   0.00, 1006.6,   80.8, -999.0
15-02-2022, 00:09:33,    214,    0.0,    1.6,   0.00,   0.00, 1006.5,   80.6, -999.0
15-02-2022, 00:09:43,    214,    0.0,    1.6,   0.00,   0.00, 1006.5,   80.6, -999.0
15-02-2022, 00:09:53,    214,    0.0,    1.5,   0.00,   0.00, 1006.5,   80.5, -999.0
15-02-2022, 00:10:03,    214,    0.0,    1.5,   0.00,   0.00, 1006.5,   80.4, -999.0
15-02-2022, 00:10:13,    214,    0.0,    1.5,   0.00,   0.00, 1006.5,   80.4, -999.0
15-02-2022, 00:10:23,    214,    0.0,    1.6,   0.00,   0.00, 1006.5,   80.4, -999.0
15-02-2022, 00:10:33,    214,    0.0,    1.5,   0.00,   0.00, 1006.5,   80.3, -999.0
15-02-2022, 00:10:43,    214,    0.0,    1.5,   0.00,   0.00, 1006.5,   80.5, -999.0
15-02-2022, 00:10:53,    229,    0.0,    1.5,   0.00,   0.00, 1006.5,   80.6, -999.0
15-02-2022, 00:11:03,    229,    0.0,    1.5,   0.00,   0.00, 1006.5,   80.6, -999.0
15-02-2022, 00:11:13,    229,    0.2,    1.6,   0.00,   0.00, 1006.5,   80.6, -999.0
15-02-2022, 00:11:23,    229,    0.3,    1.6,   0.00,   0.00, 1006.6,   80.6, -999.0
15-02-2022, 00:11:33,    229,    0.0,    1.5,   0.00,   0.00, 1006.5,   80.6, -999.0
15-02-2022, 00:11:43,    231,    0.0,    1.5,   0.00,   0.00, 1006.5,   80.6, -999.0
15-02-2022, 00:11:53,    230,    0.0,    1.5,   0.00,   0.00, 1006.5,   80.6, -999.0
15-02-2022, 00:12:03,    224,    1.0,    1.6,   0.00,   0.00, 1006.6,   80.8, -999.0
15-02-2022, 00:12:12,    226,    1.0,    1.7,   0.00,   0.00, 1006.6,   80.9, -999.0
15-02-2022, 00:12:23,    253,    1.5,    1.6,   0.00,   0.00, 1006.6,   80.9, -999.0
15-02-2022, 00:12:32,    260,    1.2,    1.6,   0.00,   0.00, 1006.6,   80.9, -999.0
15-02-2022, 00:12:42,    252,    0.2,    1.6,   0.00,   0.00, 1006.5,   80.7, -999.0
15-02-2022, 00:12:52,    238,    2.4,    1.6,   0.00,   0.00, 1006.6,   80.9, -999.0
15-02-2022, 00:13:02,    234,    3.4,    1.6,   0.00,   0.00, 1006.6,   81.0, -999.0
15-02-2022, 00:13:12,    287,    1.9,    1.6,   0.00,   0.00, 1006.6,   81.0, -999.0
15-02-2022, 00:13:22,    266,    1.6,    1.7,   0.00,   0.00, 1006.6,   81.1, -999.0
15-02-2022, 00:13:32,    255,    1.3,    1.7,   0.00,   0.00, 1006.6,   81.1, -999.0
15-02-2022, 00:13:42,    255,    0.5,    1.5,   0.00,   0.00, 1006.6,   81.0, -999.0
15-02-2022, 00:13:52,    255,    0.7,    1.6,   0.00,   0.00, 1006.6,   81.0, -999.0
15-02-2022, 00:14:02,    224,    0.1,    1.5,   0.00,   0.00, 1006.6,   80.8, -999.0
15-02-2022, 00:14:12,    243,    1.6,    1.5,   0.00,   0.00, 1006.6,   81.0, -999.0
15-02-2022, 00:14:22,    241,    0.5,    1.6,   0.00,   0.00, 1006.6,   81.0, -999.0
15-02-2022, 00:14:32,    258,    2.3,    1.6,   0.00,   0.00, 1006.6,   81.1, -999.0
15-02-2022, 00:14:42,    253,    2.6,    1.7,   0.00,   0.00, 1006.6,   81.2, -999.0
15-02-2022, 00:14:52,    265,    1.5,    1.5,   0.00,   0.00, 1006.6,   81.1, -999.0
15-02-2022, 00:15:02,    294,    1.2,    1.6,   0.00,   0.00, 1006.6,   81.1, -999.0
15-02-2022, 00:15:12,    250,    1.4,    1.6,   0.00,   0.00, 1006.6,   81.1, -999.0
15-02-2022, 00:15:21,    250,    0.5,    1.6,   0.00,   0.00, 1006.6,   80.9, -999.0
15-02-2022, 00:15:32,    249,    0.0,    1.5,   0.00,   0.00, 1006.5,   80.8, -999.0
15-02-2022, 00:15:42,    249,    0.0,    1.5,   0.00,   0.00, 1006.5,   80.8, -999.0
15-02-2022, 00:15:51,    248,    0.3,    1.6,   0.00,   0.00, 1006.6,   81.1, -999.0
15-02-2022, 00:16:01,    249,    0.0,    1.5,   0.00,   0.00, 1006.5,   80.9, -999.0
15-02-2022, 00:16:12,    250,    0.4,    1.6,   0.00,   0.00, 1006.6,   81.0, -999.0
15-02-2022, 00:16:21,    250,    0.2,    1.5,   0.00,   0.00, 1006.6,   81.0, -999.0
15-02-2022, 00:16:31,    270,    0.8,    1.5,   0.00,   0.00, 1006.6,   81.2, -999.0
15-02-2022, 00:16:41,    270,    0.1,    1.5,   0.00,   0.00, 1006.5,   80.8, -999.0
15-02-2022, 00:16:51,    270,    0.0,    1.4,   0.00,   0.00, 1006.5,   80.8, -999.0
15-02-2022, 00:17:01,    251,    1.0,    1.7,   0.00,   0.00, 1006.6,   81.1, -999.0
15-02-2022, 00:17:11,    249,    1.2,    1.5,   0.00,   0.00, 1006.7,   81.2, -999.0
15-02-2022, 00:17:21,    248,    0.0,    1.4,   0.00,   0.00, 1006.5,   80.9, -999.0
15-02-2022, 00:17:31,    249,    0.0,    1.4,   0.00,   0.00, 1006.5,   80.7, -999.0
15-02-2022, 00:17:41,    249,    0.0,    1.4,   0.00,   0.00, 1006.5,   80.9, -999.0
15-02-2022, 00:17:51,    248,    0.2,    1.5,   0.00,   0.00, 1006.6,   81.1, -999.0
15-02-2022, 00:18:01,    247,    0.1,    1.5,   0.00,   0.00, 1006.5,   81.0, -999.0
15-02-2022, 00:18:11,    230,    0.1,    1.5,   0.00,   0.00, 1006.6,   81.1, -999.0
15-02-2022, 00:18:21,    230,    0.3,    1.5,   0.00,   0.00, 1006.6,   81.3, -999.0
15-02-2022, 00:18:30,    209,    0.7,    1.6,   0.00,   0.00, 1006.6,   81.3, -999.0
15-02-2022, 00:18:41,    208,    0.5,    1.6,   0.00,   0.00, 1006.6,   81.2, -999.0
15-02-2022, 00:18:51,    208,    0.0,    1.5,   0.00,   0.00, 1006.5,   81.0, -999.0
15-02-2022, 00:19:00,    209,    0.0,    1.5,   0.00,   0.00, 1006.5,   81.0, -999.0
15-02-2022, 00:19:10,    209,    0.0,    1.4,   0.00,   0.00, 1006.5,   80.9, -999.0
15-02-2022, 00:19:21,    209,    0.0,    1.5,   0.00,   0.00, 1006.5,   81.0, -999.0
15-02-2022, 00:19:30,    208,    0.0,    1.5,   0.00,   0.00, 1006.5,   81.1, -999.0
15-02-2022, 00:19:40,    209,    0.0,    1.4,   0.00,   0.00, 1006.5,   81.0, -999.0
15-02-2022, 00:19:50,    209,    0.3,    1.5,   0.00,   0.00, 1006.6,   81.3, -999.0
15-02-2022, 00:20:00,    209,    0.3,    1.6,   0.00,   0.00, 1006.6,   81.4, -999.0
15-02-2022, 00:20:10,    208,    0.0,    1.5,   0.00,   0.00, 1006.5,   81.1, -999.0
15-02-2022, 00:20:20,    208,    0.0,    1.5,   0.00,   0.00, 1006.6,   81.0, -999.0
15-02-2022, 00:20:30,    209,    0.3,    1.5,   0.00,   0.00, 1006.6,   81.3, -999.0
15-02-2022, 00:20:40,    208,    0.3,    1.5,   0.00,   0.00, 1006.6,   81.1, -999.0
15-02-2022, 00:20:50,    224,    1.2,    1.5,   0.00,   0.00, 1006.7,   81.4, -999.0
15-02-2022, 00:21:00,    232,    2.3,    1.6,   0.00,   0.00, 1006.7,   81.4, -999.0
15-02-2022, 00:21:10,    219,    1.2,    1.5,   0.00,   0.00, 1006.7,   81.5, -999.0
15-02-2022, 00:21:20,    217,    0.7,    1.5,   0.00,   0.00, 1006.6,   81.3, -999.0
15-02-2022, 00:21:30,    217,    0.0,    1.5,   0.00,   0.00, 1006.6,   81.0, -999.0
15-02-2022, 00:21:40,    217,    0.0,    1.5,   0.00,   0.00, 1006.5,   81.1, -999.0
15-02-2022, 00:21:50,    217,    0.0,    1.5,   0.00,   0.00, 1006.6,   81.2, -999.0
15-02-2022, 00:22:00,    216,    0.0,    1.5,   0.00,   0.00, 1006.6,   81.1, -999.0
15-02-2022, 00:22:10,    217,    0.0,    1.5,   0.00,   0.00, 1006.5,   81.1, -999.0
15-02-2022, 00:22:19,    216,    0.0,    1.5,   0.00,   0.00, 1006.6,   81.0, -999.0
15-02-2022, 00:22:30,    216,    0.2,    1.5,   0.00,   0.00, 1006.6,   81.3, -999.0
15-02-2022, 00:22:40,    216,    0.3,    1.5,   0.00,   0.00, 1006.7,   81.4, -999.0
15-02-2022, 00:22:49,    216,    0.0,    1.5,   0.00,   0.00, 1006.6,   81.0, -999.0
15-02-2022, 00:22:59,    216,    0.0,    1.5,   0.00,   0.00, 1006.5,   81.2, -999.0
15-02-2022, 00:23:09,    216,    0.0,    1.3,   0.00,   0.00, 1006.6,   81.2, -999.0
15-02-2022, 00:23:19,    216,    0.1,    1.5,   0.00,   0.00, 1006.6,   81.2, -999.0
15-02-2022, 00:23:29,    222,    0.4,    1.6,   0.00,   0.00, 1006.7,   81.4, -999.0
15-02-2022, 00:23:39,    223,    0.0,    1.5,   0.00,   0.00, 1006.6,   81.0, -999.0
15-02-2022, 00:23:49,    223,    0.0,    1.4,   0.00,   0.00, 1006.6,   81.1, -999.0
15-02-2022, 00:23:59,    223,    0.0,    1.4,   0.00,   0.00, 1006.6,   81.1, -999.0
15-02-2022, 00:24:09,    222,    0.0,    1.4,   0.00,   0.00, 1006.6,   81.1, -999.0
15-02-2022, 00:24:19,    221,    0.2,    1.4,   0.00,   0.00, 1006.7,   81.3, -999.0
15-02-2022, 00:24:29,    221,    0.6,    1.5,   0.00,   0.00, 1006.7,   81.4, -999.0
15-02-2022, 00:24:39,    220,    0.0,    1.4,   0.00,   0.00, 1006.6,   81.2, -999.0
15-02-2022, 00:24:49,    221,    0.0,    1.5,   0.00,   0.00, 1006.6,   81.2, -999.0
15-02-2022, 00:24:59,    221,    0.0,    1.5,   0.00,   0.00, 1006.6,   81.2, -999.0
15-02-2022, 00:25:09,    221,    0.0,    1.4,   0.00,   0.00, 1006.6,   81.1, -999.0
15-02-2022, 00:25:19,    221,    0.0,    1.4,   0.00,   0.00, 1006.6,   81.1, -999.0
15-02-2022, 00:25:28,    221,    0.0,    1.4,   0.00,   0.00, 1006.6,   81.1, -999.0
15-02-2022, 00:25:39,    221,    0.0,    1.5,   0.00,   0.00, 1006.6,   81.0, -999.0
15-02-2022, 00:25:49,    220,    0.1,    1.4,   0.00,   0.00, 1006.7,   81.3, -999.0
15-02-2022, 00:25:58,    220,    0.0,    1.5,   0.00,   0.00, 1006.6,   81.1, -999.0
15-02-2022, 00:26:08,    220,    0.0,    1.5,   0.00,   0.00, 1006.6,   81.2, -999.0
15-02-2022, 00:26:19,    220,    0.0,    1.5,   0.00,   0.00, 1006.6,   81.4, -999.0
15-02-2022, 00:26:28,    220,    0.0,    1.5,   0.00,   0.00, 1006.6,   81.3, -999.0
15-02-2022, 00:26:38,    220,    0.0,    1.4,   0.00,   0.00, 1006.6,   81.3, -999.0
15-02-2022, 00:26:48,    218,    0.2,    1.3,   0.00,   0.00, 1006.7,   81.3, -999.0
15-02-2022, 00:26:58,    218,    0.5,    1.5,   0.00,   0.00, 1006.7,   81.6, -999.0
15-02-2022, 00:27:08,    218,    0.0,    1.5,   0.00,   0.00, 1006.6,   81.4, -999.0
15-02-2022, 00:27:18,    218,    0.0,    1.4,   0.00,   0.00, 1006.6,   81.4, -999.0
15-02-2022, 00:27:28,    266,    0.9,    1.5,   0.00,   0.00, 1006.7,   81.5, -999.0
15-02-2022, 00:27:38,    258,    1.3,    1.6,   0.00,   0.00, 1006.7,   81.6, -999.0
15-02-2022, 00:27:48,    217,    1.0,    1.6,   0.00,   0.00, 1006.8,   81.6, -999.0
15-02-2022, 00:27:58,    216,    0.3,    1.6,   0.00,   0.00, 1006.7,   81.4, -999.0
15-02-2022, 00:28:08,    216,    0.0,    1.5,   0.00,   0.00, 1006.6,   81.3, -999.0
15-02-2022, 00:28:18,    216,    0.0,    1.5,   0.00,   0.00, 1006.6,   81.3, -999.0
15-02-2022, 00:28:28,    217,    0.0,    1.4,   0.00,   0.00, 1006.6,   81.3, -999.0
15-02-2022, 00:28:37,    216,    0.0,    1.5,   0.00,   0.00, 1006.6,   81.4, -999.0
15-02-2022, 00:28:48,    216,    0.2,    1.5,   0.00,   0.00, 1006.6,   81.4, -999.0
15-02-2022, 00:28:58,    216,    0.7,    1.6,   0.00,   0.00, 1006.7,   81.7, -999.0
15-02-2022, 00:29:07,    216,    0.2,    1.5,   0.00,   0.00, 1006.7,   81.7, -999.0
15-02-2022, 00:29:17,    215,    0.0,    1.4,   0.00,   0.00, 1006.6,   81.5, -999.0
15-02-2022, 00:29:28,    216,    0.0,    1.4,   0.00,   0.00, 1006.6,   81.5, -999.0
15-02-2022, 00:29:37,    213,    0.0,    1.4,   0.00,   0.00, 1006.6,   81.5, -999.0
15-02-2022, 00:29:47,    213,    0.0,    1.5,   0.00,   0.00, 1006.6,   81.4, -999.0
15-02-2022, 00:29:57,    213,    0.0,    1.4,   0.00,   0.00, 1006.6,   81.4, -999.0
15-02-2022, 00:30:07,    213,    0.0,    1.5,   0.00,   0.00, 1006.6,   81.4, -999.0
15-02-2022, 00:30:17,    213,    0.0,    1.4,   0.00,   0.00, 1006.6,   81.4, -999.0
15-02-2022, 00:30:27,    214,    0.1,    1.4,   0.00,   0.00, 1006.6,   81.4, -999.0
15-02-2022, 00:30:37,    214,    0.0,    1.4,   0.00,   0.00, 1006.6,   81.5, -999.0
15-02-2022, 00:30:47,    213,    0.0,    1.4,   0.00,   0.00, 1006.6,   81.4, -999.0
15-02-2022, 00:30:57,    214,    0.0,    1.5,   0.00,   0.00, 1006.6,   81.5, -999.0
15-02-2022, 00:31:07,    213,    0.0,    1.5,   0.00,   0.00, 1006.6,   81.4, -999.0
15-02-2022, 00:31:17,    214,    0.0,    1.5,   0.00,   0.00, 1006.6,   81.4, -999.0
15-02-2022, 00:31:27,    214,    0.0,    1.4,   0.00,   0.00, 1006.6,   81.3, -999.0
15-02-2022, 00:31:37,    214,    0.0,    1.4,   0.00,   0.00, 1006.6,   81.4, -999.0
15-02-2022, 00:31:47,    213,    0.0,    1.4,   0.00,   0.00, 1006.6,   81.4, -999.0
15-02-2022, 00:31:57,    213,    0.0,    1.4,   0.00,   0.00, 1006.6,   81.3, -999.0
15-02-2022, 00:32:07,    213,    0.0,    1.4,   0.00,   0.00, 1006.6,   81.2, -999.0
15-02-2022, 00:32:17,    213,    0.0,    1.4,   0.00,   0.00, 1006.6,   81.3, -999.0
15-02-2022, 00:32:26,    214,    0.0,    1.4,   0.00,   0.00, 1006.6,   81.2, -999.0
15-02-2022, 00:32:37,    213,    0.0,    1.3,   0.00,   0.00, 1006.7,   81.3, -999.0
15-02-2022, 00:32:47,    214,    0.0,    1.4,   0.00,   0.00, 1006.6,   81.4, -999.0
15-02-2022, 00:32:56,    213,    0.1,    1.4,   0.00,   0.00, 1006.7,   81.5, -999.0
15-02-2022, 00:33:06,    213,    0.9,    1.5,   0.00,   0.00, 1006.8,   81.7, -999.0
15-02-2022, 00:33:16,    212,    0.4,    1.5,   0.00,   0.00, 1006.8,   81.8, -999.0
15-02-2022, 00:33:26,    211,    0.4,    1.5,   0.00,   0.00, 1006.8,   81.8, -999.0
15-02-2022, 00:33:36,    211,    0.0,    1.4,   0.00,   0.00, 1006.7,   81.5, -999.0
15-02-2022, 00:33:46,    212,    0.1,    1.4,   0.00,   0.00, 1006.7,   81.7, -999.0
15-02-2022, 00:33:56,    228,    0.5,    1.4,   0.00,   0.00, 1006.8,   81.7, -999.0
15-02-2022, 00:34:06,    247,    1.4,    1.5,   0.00,   0.00, 1006.8,   81.8, -999.0
15-02-2022, 00:34:16,    225,    0.8,    1.5,   0.00,   0.00, 1006.8,   81.8, -999.0
15-02-2022, 00:34:26,    211,    1.8,    1.4,   0.00,   0.00, 1006.8,   81.9, -999.0
15-02-2022, 00:34:36,    227,    1.4,    1.5,   0.00,   0.00, 1006.8,   81.9, -999.0
15-02-2022, 00:34:46,    226,    0.0,    1.3,   0.00,   0.00, 1006.7,   81.7, -999.0
15-02-2022, 00:34:56,    226,    0.3,    1.4,   0.00,   0.00, 1006.7,   81.7, -999.0
15-02-2022, 00:35:06,    222,    0.7,    1.5,   0.00,   0.00, 1006.8,   81.7, -999.0
15-02-2022, 00:35:16,    225,    1.0,    1.5,   0.00,   0.00, 1006.8,   81.8, -999.0
15-02-2022, 00:35:26,    226,    1.3,    1.5,   0.00,   0.00, 1006.9,   81.9, -999.0
15-02-2022, 00:35:35,    225,    0.8,    1.5,   0.00,   0.00, 1006.8,   81.9, -999.0
15-02-2022, 00:35:46,    225,    0.3,    1.4,   0.00,   0.00, 1006.8,   81.8, -999.0
15-02-2022, 00:35:56,    225,    0.0,    1.4,   0.00,   0.00, 1006.7,   81.5, -999.0
15-02-2022, 00:36:05,    225,    0.0,    1.3,   0.00,   0.00, 1006.7,   81.6, -999.0
15-02-2022, 00:36:15,    225,    0.0,    1.3,   0.00,   0.00, 1006.7,   81.5, -999.0
15-02-2022, 00:36:26,    222,    0.3,    1.3,   0.00,   0.00, 1006.8,   81.8, -999.0
15-02-2022, 00:36:35,    218,    0.7,    1.4,   0.00,   0.00, 1006.9,   82.0, -999.0
15-02-2022, 00:36:45,    218,    0.0,    1.4,   0.00,   0.00, 1006.7,   81.7, -999.0
15-02-2022, 00:36:55,    218,    0.3,    1.4,   0.00,   0.00, 1006.8,   81.9, -999.0
15-02-2022, 00:37:05,    210,    1.4,    1.4,   0.00,   0.00, 1006.9,   82.0, -999.0
15-02-2022, 00:37:15,    210,    1.2,    1.4,   0.00,   0.00, 1006.9,   81.9, -999.0
15-02-2022, 00:37:25,    210,    0.9,    1.4,   0.00,   0.00, 1006.9,   82.0, -999.0
15-02-2022, 00:37:35,    209,    0.1,    1.4,   0.00,   0.00, 1006.8,   81.7, -999.0
15-02-2022, 00:37:45,    209,    0.0,    1.3,   0.00,   0.00, 1006.7,   81.7, -999.0
15-02-2022, 00:37:55,    210,    0.0,    1.3,   0.00,   0.00, 1006.8,   81.5, -999.0
15-02-2022, 00:38:05,    211,    0.0,    1.3,   0.00,   0.00, 1006.8,   81.6, -999.0
15-02-2022, 00:38:15,    210,    0.8,    1.4,   0.00,   0.00, 1006.9,   81.9, -999.0
15-02-2022, 00:38:25,    209,    0.1,    1.4,   0.00,   0.00, 1006.8,   81.8, -999.0
15-02-2022, 00:38:35,    210,    0.0,    1.3,   0.00,   0.00, 1006.8,   81.7, -999.0
15-02-2022, 00:38:45,    209,    0.0,    1.3,   0.00,   0.00, 1006.8,   81.8, -999.0
15-02-2022, 00:38:55,    209,    0.0,    1.2,   0.00,   0.00, 1006.8,   81.7, -999.0
15-02-2022, 00:39:05,    209,    0.0,    1.3,   0.00,   0.00, 1006.8,   81.7, -999.0
15-02-2022, 00:39:15,    210,    0.0,    1.2,   0.00,   0.00, 1006.8,   81.7, -999.0
15-02-2022, 00:39:24,    210,    0.0,    1.2,   0.00,   0.00, 1006.8,   81.7, -999.0
15-02-2022, 00:39:35,    209,    0.3,    1.4,   0.00,   0.00, 1006.9,   82.0, -999.0
15-02-2022, 00:39:44,    214,    0.2,    1.2,   0.00,   0.00, 1006.9,   81.8, -999.0
15-02-2022, 00:39:54,    224,    1.8,    1.4,   0.00,   0.00, 1007.0,   82.3, -999.0
15-02-2022, 00:40:04,    228,    1.5,    1.4,   0.00,   0.00, 1007.0,   82.3, -999.0
15-02-2022, 00:40:14,    237,    1.2,    1.4,   0.00,   0.00, 1007.0,   82.2, -999.0
15-02-2022, 00:40:24,    236,    0.2,    1.4,   0.00,   0.00, 1007.0,   82.0, -999.0
15-02-2022, 00:40:34,    236,    0.0,    1.3,   0.00,   0.00, 1006.8,   81.6, -999.0
15-02-2022, 00:40:44,    236,    0.2,    1.3,   0.00,   0.00, 1006.9,   81.9, -999.0
15-02-2022, 00:40:54,    236,    0.3,    1.4,   0.00,   0.00, 1006.9,   81.9, -999.0
15-02-2022, 00:41:04,    238,    0.0,    1.3,   0.00,   0.00, 1006.9,   81.8, -999.0
15-02-2022, 00:41:14,    238,    0.0,    1.3,   0.00,   0.00, 1006.9,   81.9, -999.0
15-02-2022, 00:41:24,    238,    0.0,    1.2,   0.00,   0.00, 1006.9,   81.9, -999.0
15-02-2022, 00:41:34,    238,    0.0,    1.3,   0.00,   0.00, 1006.9,   81.8, -999.0
15-02-2022, 00:41:44,    239,    0.0,    1.3,   0.00,   0.00, 1006.9,   82.0, -999.0
15-02-2022, 00:41:54,    239,    0.0,    1.3,   0.00,   0.00, 1006.9,   81.8, -999.0
15-02-2022, 00:42:04,    239,    0.0,    1.2,   0.00,   0.00, 1006.9,   81.9, -999.0
15-02-2022, 00:42:14,    238,    0.0,    1.2,   0.00,   0.00, 1006.9,   81.9, -999.0
15-02-2022, 00:42:24,    239,    0.0,    1.2,   0.00,   0.00, 1006.9,   82.0, -999.0
15-02-2022, 00:42:33,    238,    0.0,    1.1,   0.00,   0.00, 1006.9,   81.9, -999.0
15-02-2022, 00:42:44,    238,    0.0,    1.2,   0.00,   0.00, 1006.9,   81.9, -999.0
15-02-2022, 00:42:54,    239,    0.0,    1.3,   0.00,   0.00, 1006.9,   82.0, -999.0
15-02-2022, 00:43:03,    238,    0.0,    1.2,   0.00,   0.00, 1006.9,   81.9, -999.0
15-02-2022, 00:43:14,    238,    0.0,    1.2,   0.00,   0.00, 1006.9,   81.8, -999.0
15-02-2022, 00:43:24,    238,    0.0,    1.2,   0.00,   0.00, 1006.9,   81.8, -999.0
15-02-2022, 00:43:33,    239,    0.2,    1.2,   0.00,   0.00, 1007.0,   82.3, -999.0
15-02-2022, 00:43:43,    239,    0.8,    1.2,   0.00,   0.00, 1007.0,   82.3, -999.0
15-02-2022, 00:43:53,    230,    0.4,    1.3,   0.00,   0.00, 1007.0,   82.3, -999.0
15-02-2022, 00:44:03,    230,    0.0,    1.2,   0.00,   0.00, 1006.9,   81.9, -999.0
15-02-2022, 00:44:13,    230,    0.0,    1.2,   0.00,   0.00, 1006.9,   82.0, -999.0
15-02-2022, 00:44:23,    230,    0.0,    1.1,   0.00,   0.00, 1006.9,   82.0, -999.0
15-02-2022, 00:44:33,    228,    0.1,    1.2,   0.00,   0.00, 1006.9,   82.1, -999.0
15-02-2022, 00:44:43,    228,    0.2,    1.2,   0.00,   0.00, 1006.9,   82.2, -999.0
15-02-2022, 00:44:53,    228,    0.0,    1.2,   0.00,   0.00, 1006.9,   82.2, -999.0
15-02-2022, 00:45:03,    231,    0.2,    1.1,   0.00,   0.00, 1006.9,   82.2, -999.0
15-02-2022, 00:45:13,    231,    1.1,    1.3,   0.00,   0.00, 1007.0,   82.6, -999.0
15-02-2022, 00:45:23,    231,    0.0,    1.1,   0.00,   0.00, 1006.9,   82.2, -999.0
15-02-2022, 00:45:33,    231,    0.0,    1.1,   0.00,   0.00, 1006.9,   82.3, -999.0
15-02-2022, 00:45:43,    231,    0.0,    1.2,   0.00,   0.00, 1006.9,   82.1, -999.0
15-02-2022, 00:45:53,    231,    0.0,    1.0,   0.00,   0.00, 1006.9,   82.2, -999.0
15-02-2022, 00:46:03,    182,    0.3,    1.2,   0.00,   0.00, 1007.0,   82.3, -999.0
15-02-2022, 00:46:12,    183,    0.0,    1.2,   0.00,   0.00, 1006.8,   82.3, -999.0
15-02-2022, 00:46:22,    228,    0.0,    1.2,   0.00,   0.00, 1006.9,   82.4, -999.0
15-02-2022, 00:46:33,    230,    1.2,    1.2,   0.00,   0.00, 1007.0,   82.6, -999.0
15-02-2022, 00:46:42,    254,    1.6,    1.3,   0.00,   0.00, 1007.0,   82.6, -999.0